sat.trackr.live / text

‹ back to catalog

STARLINK-32728

NORAD 62948 · 2025-029A

PAYLOAD ACTIVE UNKNOWN

§ Identity

Operator
Country
US
Launch date
2025-02-11
Launch site
AFWTR
Launch vehicle
Mass (kg)
RCS (m²)

Purposes: comms

External: N2YO · Heavens-Above · Gunter

§ Orbital elements

Epoch: 2026-05-24T14:31:01.185312Z

Period
94.11 min
Inclination
53.1574°
Eccentricity
0.0001210
Mean motion
15.30196085 rev/d
Perigee alt
474.4 km
Apogee alt
476.1 km
Semi-major
6,853.4 km
B*
2.0155e-4
RAAN
237.4938°
Arg perigee
88.8436°
Mean anomaly
271.2703°
Rev number
7,301

§ Raw data

STARLINK-327281 62948U 25029A   26144.60487483  .00005614  00000+0  20155-3 0  99952 62948  53.1574 237.4938 0001210  88.8436 271.2703 15.30196085 73014

JSON: /api/v1/satellites/62948 · /tle

For live sub-satellite position, see the globe view (requires WebGL).

§ Visibility from observer

Set your observer location to see the next 7 days of passes ≥ 10°. The values pass through the URL so the page stays shareable.

No JS? Fill the form by hand. The geolocation button needs JavaScript.